PBO Station Position Time Series. Reference Frame : NAM14
Format Version,1.1.0
4-character ID,SAV1
Station name,Savannah_1_GAUSA
Begin Date, 1998-12-04
End Date, 2007-10-30
Release Date, 2019-08-30
Reference position, 32.1386001811 North Latitude, -81.6963360415 East Longitude, 8.41444 meters elevation,
Date, North (mm), East (mm), Vertical (mm), North Std. Deviation (mm), East Std. Deviation (mm),              Vertical Std. Deviation (mm), Quality,
1998-12-04,0.00, 0.00, 0.00, 2.10, 1.85, 8.49, repro,
1998-12-05,-0.17, 0.33, -16.36, 2.11, 1.80, 8.51, repro,
1998-12-06,-1.10, 0.41, -4.25, 2.13, 1.81, 8.61, repro,
1998-12-07,-0.12, 0.50, -6.45, 2.25, 1.98, 9.14, repro,
1998-12-08,-1.30, -0.22, 6.41, 2.24, 2.05, 9.71, repro,
1998-12-09,-3.19, 1.96, 4.93, 2.20, 1.96, 9.18, repro,
1998-12-10,-2.07, 0.33, -10.38, 2.06, 1.86, 8.54, repro,
1998-12-11,1.78, 1.27, -0.05, 2.44, 2.00, 9.85, repro,
1998-12-12,-1.31, 0.88, -0.98, 2.12, 1.82, 8.68, repro,
1998-12-13,-3.55, 1.20, -6.75, 2.08, 1.85, 8.61, repro,
1998-12-14,-2.93, 1.31, -5.34, 2.19, 2.07, 9.15, repro,
1998-12-15,-3.00, 1.54, -10.86, 2.21, 1.97, 8.78, repro,
1998-12-16,-1.80, 3.39, -6.27, 2.18, 2.04, 8.78, repro,
1998-12-17,-1.74, 1.01, -8.12, 2.10, 1.96, 8.79, repro,
1998-12-18,-2.90, 0.37, -12.50, 2.09, 1.98, 8.89, repro,
1998-12-19,-2.39, 0.52, -12.73, 2.16, 1.97, 9.01, repro,
1998-12-20,-0.99, 2.95, -9.48, 2.09, 1.91, 8.61, repro,
1998-12-21,-0.60, 2.37, -7.28, 2.20, 1.99, 9.38, repro,
1998-12-22,-9.74, 3.76, -1.75, 3.02, 2.70, 12.08, repro,
1998-12-23,-2.29, 1.29, -14.65, 2.08, 1.95, 8.69, repro,
1998-12-24,-3.97, 1.24, -10.29, 2.31, 2.04, 9.56, repro,
1998-12-25,-2.09, 2.95, -7.27, 2.30, 2.01, 9.64, repro,
1998-12-26,-0.57, 1.82, -8.54, 2.11, 1.98, 8.86, repro,
1998-12-27,-1.31, 0.73, -3.04, 2.11, 1.97, 8.68, repro,
1998-12-28,-2.59, 2.13, -11.58, 2.26, 2.12, 9.20, repro,
1998-12-29,-3.67, 2.15, -2.39, 2.14, 1.98, 8.69, repro,
1998-12-30,-1.62, 2.60, -6.55, 2.20, 1.92, 8.85, repro,
1998-12-31,1.42, 2.61, -10.55, 2.35, 2.18, 9.47, repro,
1999-01-01,-1.85, 2.93, 0.44, 2.79, 2.47, 11.35, repro,
1999-01-02,1.73, -3.97, -0.57, 6.90, 6.19, 28.86, repro,
1999-01-03,-3.65, 1.42, -13.63, 2.14, 1.94, 8.58, repro,
1999-01-04,12.52, 4.82, -27.31, 3.22, 2.93, 12.64, repro,
1999-01-08,-0.19, 4.15, -14.77, 5.54, 5.25, 22.72, repro,
1999-01-11,-0.29, 3.82, -6.64, 3.76, 3.44, 15.08, repro,
1999-01-12,-2.58, -0.05, -12.04, 2.79, 2.30, 11.20, repro,
1999-01-13,-1.85, 4.54, -10.91, 3.26, 2.96, 13.21, repro,
1999-01-14,-0.19, -0.67, -6.51, 2.18, 2.12, 9.09, repro,
1999-01-15,-1.51, -0.42, -9.08, 2.18, 1.96, 8.77, repro,
1999-01-16,-0.64, 0.57, -4.76, 2.15, 1.93, 8.57, repro,
1999-01-17,-2.09, -0.01, -6.44, 2.42, 2.16, 9.42, repro,
1999-01-18,-3.31, 0.78, 1.20, 2.38, 2.11, 9.64, repro,
1999-01-19,-0.23, 1.31, -7.31, 2.03, 1.80, 8.10, repro,
1999-01-20,-1.42, -0.51, -4.12, 2.10, 1.87, 8.22, repro,
1999-01-21,-3.06, 0.38, -13.10, 2.37, 1.99, 9.36, repro,
1999-01-22,-1.41, -2.23, -19.11, 5.51, 4.47, 24.10, repro,
1999-02-19,-1.28, -0.21, -8.49, 3.15, 2.73, 11.92, repro,
1999-02-20,0.66, 0.76, -12.71, 2.14, 1.98, 8.51, repro,
1999-02-21,-0.19, 0.08, -19.40, 2.06, 1.90, 8.32, repro,
1999-03-04,-3.42, 4.73, 17.54, 5.00, 4.31, 20.26, repro,
1999-03-05,-1.52, 1.23, -15.68, 2.04, 1.80, 8.13, repro,
1999-03-06,-2.89, 0.76, -16.40, 2.12, 1.86, 8.61, repro,
1999-03-07,-0.49, 1.73, -17.67, 2.03, 1.83, 8.19, repro,
1999-03-08,-0.35, 0.58, -18.99, 2.07, 1.86, 8.35, repro,
1999-03-09,-1.28, 1.70, -16.57, 2.09, 1.87, 8.49, repro,
1999-03-10,-1.58, 1.06, -16.74, 2.17, 1.92, 9.00, repro,
1999-03-11,-0.73, 0.34, -10.85, 2.05, 1.82, 8.13, repro,
1999-03-12,0.41, -1.05, -14.30, 2.14, 1.93, 8.53, repro,
1999-03-13,0.90, 1.46, -9.53, 2.12, 1.91, 8.42, repro,
1999-03-14,-2.03, 1.55, -10.55, 2.14, 1.92, 8.55, repro,
1999-03-15,0.53, 0.85, -13.84, 2.18, 1.96, 8.55, repro,
1999-03-16,3.28, 0.88, -11.99, 2.50, 2.22, 9.60, repro,
1999-03-17,1.13, 0.92, -3.47, 2.42, 2.13, 9.38, repro,
1999-03-18,-0.34, -1.61, -0.88, 2.57, 2.12, 9.81, repro,
1999-03-19,1.95, 0.80, -11.51, 2.44, 2.07, 9.37, repro,
1999-03-20,1.13, 0.65, -12.39, 2.39, 2.11, 9.48, repro,
1999-03-21,2.93, 0.83, -7.17, 2.29, 1.95, 8.86, repro,
1999-03-22,0.77, -0.05, -9.18, 2.43, 2.17, 9.66, repro,
1999-03-23,1.46, -0.95, -12.09, 2.34, 2.10, 9.05, repro,
1999-03-24,-0.85, -0.57, 0.05, 2.35, 2.02, 9.17, repro,
1999-03-25,1.06, -0.94, -11.62, 2.24, 1.98, 8.76, repro,
1999-03-26,0.87, -0.01, -12.33, 2.36, 2.11, 9.04, repro,
1999-03-27,-0.75, 1.52, -13.10, 2.27, 1.94, 8.74, repro,
1999-03-28,1.27, -1.18, -11.26, 2.29, 2.03, 8.89, repro,
1999-03-29,0.16, 0.21, -23.34, 2.14, 1.87, 8.63, repro,
1999-03-30,-1.17, -0.88, -7.34, 2.21, 1.97, 8.80, repro,
1999-03-31,-0.21, 0.67, -13.26, 2.25, 2.02, 8.82, repro,
1999-04-01,-1.81, -0.23, -5.63, 2.17, 1.88, 8.43, repro,
1999-04-02,0.61, 3.30, -12.72, 2.19, 1.97, 8.53, repro,
1999-04-03,0.62, 0.76, -9.75, 2.23, 1.99, 8.79, repro,
1999-04-04,0.85, 1.22, -13.96, 2.10, 1.85, 8.22, repro,
1999-04-05,0.29, -1.11, -10.93, 3.22, 3.10, 12.84, repro,
1999-04-16,0.09, 0.70, -4.70, 4.86, 3.94, 18.89, repro,
1999-04-17,0.54, 0.84, -12.85, 2.14, 1.93, 8.37, repro,
1999-04-18,0.66, 1.41, -7.73, 2.13, 1.92, 8.42, repro,
1999-04-19,0.68, 1.34, -7.43, 2.13, 1.89, 8.36, repro,
1999-04-20,0.51, 2.16, -2.99, 2.20, 1.99, 8.57, repro,
1999-04-21,0.11, 0.09, -7.62, 2.17, 1.95, 8.59, repro,
1999-04-22,-0.41, 0.00, -2.25, 2.19, 2.00, 8.53, repro,
1999-04-23,0.95, 0.83, -7.84, 2.18, 1.91, 8.43, repro,
1999-04-24,0.82, 1.81, -2.05, 2.14, 1.90, 8.43, repro,
1999-04-25,-0.47, -0.42, -9.48, 2.19, 1.91, 8.69, repro,
1999-04-26,1.01, 0.02, -8.07, 2.15, 1.89, 8.27, repro,
1999-04-27,0.05, 1.15, -3.42, 2.27, 1.98, 8.72, repro,
1999-04-28,-0.44, 1.19, -7.34, 2.16, 1.91, 8.41, repro,
1999-04-29,-0.17, -0.82, -9.23, 2.23, 1.94, 8.66, repro,
1999-04-30,-0.63, 1.29, -12.18, 2.39, 1.99, 9.07, repro,
1999-05-01,0.81, 1.47, -4.12, 2.27, 1.91, 8.85, repro,
1999-05-02,0.76, 1.03, -9.95, 2.21, 1.90, 8.70, repro,
1999-05-03,-0.88, -1.68, -3.77, 2.23, 2.01, 8.94, repro,
1999-05-04,0.36, 0.83, -1.42, 2.22, 1.96, 8.67, repro,
1999-05-05,1.43, 1.76, 6.72, 2.27, 2.03, 9.06, repro,
1999-05-06,-0.31, 0.14, -0.78, 2.23, 1.93, 8.73, repro,
1999-05-07,1.00, -0.29, -3.85, 2.20, 2.07, 8.84, repro,
1999-05-08,-0.62, -0.09, -0.57, 2.22, 1.91, 8.64, repro,
1999-05-09,-0.76, -0.67, -2.11, 2.25, 1.90, 8.69, repro,
1999-05-10,-1.64, -1.94, 0.89, 2.23, 2.01, 8.61, repro,
1999-05-11,-0.32, -0.13, -6.36, 2.19, 1.90, 8.52, repro,
1999-05-12,-1.20, -1.15, -3.13, 2.18, 1.88, 8.45, repro,
1999-05-13,-0.82, 1.26, 9.83, 2.25, 1.95, 8.99, repro,
1999-05-14,-2.81, 1.10, 0.23, 2.24, 1.94, 8.72, repro,
1999-05-15,-1.42, 2.45, -2.71, 2.38, 2.03, 9.24, repro,
1999-05-16,-0.68, 0.83, -1.24, 2.24, 1.94, 8.63, repro,
1999-05-17,0.04, 0.34, 1.22, 2.33, 1.95, 8.88, repro,
1999-05-18,-0.36, 2.32, -0.79, 2.23, 1.92, 8.85, repro,
1999-05-19,-2.65, -1.23, -9.22, 2.16, 1.90, 8.73, repro,
1999-05-20,-3.19, 3.73, -11.90, 2.25, 1.97, 9.00, repro,
1999-05-21,-0.66, 0.84, 0.85, 2.20, 1.90, 8.51, repro,
1999-05-22,0.19, -0.26, -8.89, 2.20, 1.98, 8.77, repro,
1999-05-23,-0.51, 1.78, 7.55, 2.21, 1.88, 8.48, repro,
1999-05-24,0.23, -0.87, 1.99, 2.19, 1.87, 8.52, repro,
1999-05-25,-0.83, -0.74, 7.82, 2.19, 1.90, 8.56, repro,
1999-05-26,2.30, 1.17, 5.60, 2.17, 1.87, 8.47, repro,
1999-05-27,0.12, 3.98, 6.09, 2.13, 1.92, 8.33, repro,
1999-05-28,-1.63, 0.38, 4.21, 2.11, 1.87, 8.38, repro,
1999-05-29,-0.60, 1.20, -1.65, 2.11, 1.88, 8.24, repro,
1999-05-30,-0.08, -0.14, -8.86, 2.11, 1.87, 8.27, repro,
1999-05-31,-0.19, 0.66, -0.26, 2.10, 1.86, 8.25, repro,
1999-06-01,-1.70, 2.51, 7.17, 2.19, 2.02, 8.84, repro,
1999-06-02,-0.89, 1.35, 8.57, 2.13, 1.92, 8.44, repro,
1999-06-03,-0.92, 2.85, -0.61, 2.32, 2.11, 9.44, repro,
1999-06-04,-1.32, 0.55, 7.57, 2.11, 1.87, 8.28, repro,
1999-06-05,0.25, 1.55, 4.39, 2.10, 1.84, 8.23, repro,
1999-06-06,-0.75, 3.55, 8.41, 2.08, 1.84, 8.21, repro,
1999-06-07,-0.40, 1.64, 2.49, 2.13, 1.91, 8.57, repro,
1999-06-08,-2.62, -0.39, 10.74, 2.08, 1.86, 8.21, repro,
1999-06-09,-0.82, 1.73, 5.51, 2.11, 1.85, 8.23, repro,
1999-06-10,0.79, 0.36, 9.33, 2.12, 1.86, 8.23, repro,
1999-06-11,-0.49, 1.20, 5.91, 2.16, 2.00, 8.55, repro,
1999-06-12,1.61, 3.17, 6.18, 2.13, 1.86, 8.26, repro,
1999-06-13,-0.78, -0.28, 15.10, 2.11, 1.91, 8.38, repro,
1999-06-14,-1.92, 2.90, -2.44, 2.40, 2.19, 9.78, repro,
1999-06-15,-5.43, 1.25, 10.48, 2.12, 1.88, 8.53, repro,
1999-06-16,-2.52, 0.22, 13.57, 2.18, 1.89, 8.41, repro,
1999-06-17,-0.13, 2.22, -1.07, 2.12, 1.89, 8.44, repro,
1999-06-18,-0.08, 0.78, 4.58, 2.09, 1.85, 8.15, repro,
1999-06-19,-1.02, 1.01, -5.92, 2.14, 1.90, 8.41, repro,
1999-06-20,-0.21, 2.33, -0.13, 2.15, 1.86, 8.30, repro,
1999-06-21,-1.12, 1.79, -4.40, 2.04, 1.80, 8.15, repro,
1999-06-22,-0.79, 1.67, 7.73, 2.15, 1.91, 8.46, repro,
1999-06-23,-0.09, 1.99, 2.92, 2.20, 1.91, 8.50, repro,
1999-06-24,1.12, 1.79, 1.97, 2.16, 1.95, 8.47, repro,
1999-06-25,1.81, 1.18, 8.04, 2.15, 1.96, 8.45, repro,
1999-06-26,-0.18, 0.89, 6.94, 2.10, 1.91, 8.35, repro,
1999-06-27,-1.05, 2.14, 0.21, 2.25, 1.99, 8.89, repro,
1999-06-28,-1.53, 1.78, -8.19, 2.12, 1.89, 8.50, repro,
1999-06-29,0.97, 1.29, -5.77, 2.77, 2.64, 11.62, repro,
1999-06-30,0.04, 2.51, 5.78, 2.22, 1.91, 8.85, repro,
1999-07-01,-0.28, 0.88, 22.56, 2.24, 2.07, 8.92, repro,
1999-07-02,0.43, -0.07, 9.11, 2.17, 1.96, 8.60, repro,
1999-07-03,-1.95, -0.71, 8.76, 2.21, 2.01, 8.79, repro,
1999-07-04,-1.54, -1.29, 8.71, 2.13, 1.89, 8.35, repro,
1999-07-05,-2.41, -0.44, 3.15, 2.13, 1.86, 8.26, repro,
1999-07-06,1.35, 0.03, 10.99, 2.59, 2.17, 9.76, repro,
1999-07-07,-1.60, 0.73, 14.67, 2.68, 2.24, 10.37, repro,
1999-07-08,-0.98, 1.38, 15.49, 2.28, 2.08, 8.86, repro,
1999-07-09,-2.60, 0.74, 10.01, 2.11, 1.89, 8.31, repro,
1999-07-10,-2.53, -0.43, 4.86, 2.13, 1.92, 8.34, repro,
1999-07-11,0.97, 2.07, -10.75, 2.19, 1.90, 8.73, repro,
1999-07-12,0.42, -2.35, 12.29, 2.22, 1.96, 8.65, repro,
1999-07-13,0.00, 2.47, -1.72, 2.15, 1.93, 8.46, repro,
1999-07-14,-0.89, 0.47, 2.40, 2.02, 1.77, 8.06, repro,
1999-07-15,0.62, -0.36, -0.91, 2.14, 1.90, 8.18, repro,
1999-07-16,-0.01, -2.67, 4.14, 2.25, 2.00, 9.16, repro,
1999-07-17,-4.87, -1.51, 10.10, 2.19, 1.89, 8.59, repro,
1999-07-18,-0.95, 0.66, 2.62, 2.36, 2.09, 9.12, repro,
1999-07-19,-1.53, -0.26, 1.95, 2.13, 1.95, 8.40, repro,
1999-07-20,-0.04, -0.86, 5.96, 2.10, 1.88, 8.21, repro,
1999-07-21,-0.26, -0.11, -4.12, 2.14, 1.90, 8.40, repro,
1999-07-22,-1.41, -1.70, 3.05, 2.26, 1.99, 8.82, repro,
1999-07-23,-1.97, -3.70, 10.51, 2.60, 2.25, 10.05, repro,
1999-07-24,0.53, -0.50, 4.28, 2.19, 1.93, 8.53, repro,
1999-07-25,0.04, -1.22, 11.44, 2.62, 2.37, 9.83, repro,
1999-07-26,0.06, -2.50, 0.09, 2.24, 2.02, 8.85, repro,
1999-07-27,-0.37, -0.28, 4.07, 2.24, 2.00, 8.78, repro,
1999-07-28,0.10, 0.76, 2.39, 2.08, 1.85, 8.16, repro,
1999-07-29,-2.02, 0.31, 15.81, 2.13, 1.95, 8.37, repro,
1999-07-30,1.42, 0.52, 19.97, 2.18, 1.99, 8.51, repro,
1999-07-31,1.03, 0.58, 8.37, 2.08, 1.86, 8.05, repro,
1999-08-01,-0.08, 0.92, 11.58, 2.09, 1.85, 8.06, repro,
1999-08-02,1.04, -2.75, 3.46, 2.35, 2.13, 9.37, repro,
1999-08-03,-1.14, 0.55, -9.29, 2.11, 1.95, 8.40, repro,
1999-08-04,-0.33, -0.44, 9.48, 2.16, 1.95, 8.41, repro,
1999-08-05,0.01, -1.29, 5.29, 2.18, 2.00, 8.64, repro,
1999-08-06,-0.98, -0.46, -2.65, 2.14, 1.96, 8.51, repro,
1999-08-07,1.89, 1.98, 4.59, 2.07, 1.85, 8.00, repro,
1999-08-08,-0.97, 3.78, -2.30, 2.49, 2.10, 9.39, repro,
1999-08-09,-1.70, 4.18, 0.82, 2.64, 2.14, 9.59, repro,
1999-08-10,-0.88, 1.68, 11.40, 2.16, 1.98, 8.40, repro,
1999-08-11,0.30, -0.91, 15.21, 2.13, 1.91, 8.27, repro,
1999-08-12,-0.32, 2.70, 10.81, 2.14, 1.94, 8.43, repro,
1999-08-13,0.77, -1.12, 10.99, 2.08, 1.85, 8.12, repro,
1999-08-14,2.33, -1.21, 12.48, 2.48, 2.38, 9.86, repro,
1999-08-15,1.68, -3.01, 6.96, 2.17, 2.03, 8.66, repro,
1999-08-16,2.16, -0.25, -2.77, 2.09, 1.86, 8.14, repro,
1999-08-17,-2.11, 2.17, 1.01, 2.14, 1.86, 8.33, repro,
1999-08-18,0.34, 0.02, 5.84, 2.14, 1.95, 8.53, repro,
1999-08-19,-0.41, 0.31, 6.30, 2.11, 1.87, 8.18, repro,
1999-08-20,-0.65, -3.05, 18.54, 2.21, 2.08, 8.82, repro,
1999-08-21,-2.04, -0.80, 18.79, 2.21, 1.98, 8.79, repro,
1999-08-22,-2.27, -0.29, 11.59, 2.41, 2.10, 9.42, repro,
1999-08-23,0.97, -0.75, 0.04, 2.18, 2.02, 8.55, repro,
1999-08-24,-1.34, -0.78, 7.08, 2.13, 1.91, 8.24, repro,
1999-08-25,1.93, 1.82, 7.59, 2.13, 1.94, 8.46, repro,
1999-08-26,-0.53, 0.04, 11.65, 2.17, 2.00, 8.35, repro,
1999-08-27,0.89, 0.66, 42.11, 2.80, 2.39, 10.58, repro,
1999-08-28,4.50, -0.71, 15.32, 2.34, 2.14, 9.33, repro,
1999-08-29,-4.91, -0.44, 3.25, 5.49, 4.72, 18.99, repro,
1999-08-30,0.50, -0.47, 7.04, 2.22, 1.99, 8.76, repro,
1999-08-31,0.11, 1.62, 5.70, 2.23, 1.97, 8.73, repro,
1999-09-01,-0.37, 0.64, 5.64, 2.23, 2.06, 8.85, repro,
1999-09-02,-1.55, 0.31, 3.02, 2.16, 1.94, 8.49, repro,
1999-09-03,0.33, 3.21, -4.97, 2.23, 2.00, 8.84, repro,
1999-09-04,-0.31, 1.06, 2.24, 2.21, 2.02, 8.66, repro,
1999-09-05,-0.45, 1.55, 0.47, 2.12, 1.85, 8.29, repro,
1999-09-06,0.01, 0.29, 4.11, 2.19, 1.92, 8.55, repro,
1999-09-07,3.79, -1.50, 11.06, 2.33, 2.21, 9.16, repro,
1999-09-08,0.86, 0.98, 10.49, 2.49, 2.46, 9.80, repro,
1999-09-09,0.40, -0.14, 2.90, 2.20, 1.99, 8.53, repro,
1999-09-10,1.42, 1.45, 9.58, 2.12, 1.91, 8.24, repro,
1999-09-11,1.20, 1.33, 0.51, 2.29, 2.09, 9.02, repro,
1999-09-12,-0.59, 0.07, 3.98, 2.69, 2.53, 10.90, repro,
1999-09-13,1.71, 2.54, 2.68, 2.15, 2.01, 8.45, repro,
1999-09-14,2.39, -1.21, -3.44, 2.15, 1.97, 8.36, repro,
1999-09-15,-0.63, 1.13, 4.22, 2.14, 1.94, 8.27, repro,
1999-09-16,-1.00, 1.04, 6.90, 2.20, 2.00, 8.54, repro,
1999-09-17,0.48, 0.47, -2.55, 2.41, 2.20, 9.50, repro,
1999-09-18,0.30, -0.12, 6.62, 2.21, 2.02, 8.64, repro,
1999-09-19,0.06, 0.80, 6.23, 2.19, 1.98, 8.56, repro,
1999-09-20,-2.31, 0.51, -8.50, 2.15, 1.92, 8.43, repro,
1999-09-21,0.45, 2.59, 7.13, 2.12, 1.99, 8.41, repro,
1999-09-22,-0.65, 1.15, -0.87, 2.21, 2.06, 8.83, repro,
1999-09-23,0.22, 2.06, 3.61, 2.22, 2.04, 8.87, repro,
1999-09-24,0.10, 0.65, -2.50, 2.20, 2.05, 8.76, repro,
1999-09-25,0.32, 2.74, 6.90, 2.19, 2.00, 8.66, repro,
1999-09-26,-0.86, 1.50, 11.62, 2.48, 2.27, 10.07, repro,
1999-09-27,0.20, 1.55, 1.46, 2.46, 2.30, 10.00, repro,
1999-09-28,-1.52, 1.71, -10.00, 2.26, 2.11, 9.10, repro,
1999-09-29,0.44, 0.48, 8.73, 2.71, 2.66, 11.27, repro,
1999-09-30,2.50, 2.66, 0.23, 3.58, 3.06, 13.52, repro,
1999-11-19,-1.50, 4.06, -10.05, 3.14, 2.93, 12.43, repro,
1999-11-20,-0.36, 2.51, -11.76, 2.02, 1.75, 7.97, repro,
1999-11-21,-3.36, 3.49, -0.49, 2.14, 1.85, 8.69, repro,
1999-11-22,-2.11, 0.66, -13.89, 2.24, 1.89, 8.76, repro,
1999-11-23,-2.12, 2.46, -1.37, 2.20, 1.89, 8.94, repro,
1999-11-24,-0.19, 0.43, -11.28, 2.84, 2.32, 11.12, repro,
1999-11-25,-0.66, 1.19, 2.10, 2.28, 2.08, 9.33, repro,
1999-11-26,-2.92, 2.75, -7.84, 2.30, 2.12, 9.38, repro,
1999-11-27,-0.13, 1.65, -8.39, 2.10, 1.87, 8.46, repro,
1999-11-28,1.03, 1.02, -7.61, 2.16, 1.92, 8.90, repro,
1999-11-29,-0.64, 0.85, -24.11, 2.27, 2.05, 9.15, repro,
1999-11-30,0.29, 2.90, -4.28, 2.56, 2.61, 10.82, repro,
1999-12-01,-2.04, 0.23, -9.93, 2.45, 2.32, 9.79, repro,
1999-12-02,0.94, 1.92, -12.88, 2.01, 1.83, 8.18, repro,
1999-12-03,-0.43, 0.86, -9.74, 2.25, 1.95, 9.12, repro,
1999-12-04,1.19, 0.94, -16.32, 2.34, 2.14, 9.36, repro,
1999-12-05,-0.54, 0.48, -8.26, 2.06, 1.89, 8.26, repro,
1999-12-06,-4.66, 1.69, -15.08, 2.18, 1.93, 8.89, repro,
1999-12-07,0.40, 0.53, -18.18, 2.10, 1.87, 8.55, repro,
1999-12-08,-0.29, -0.98, -20.35, 2.44, 2.08, 9.88, repro,
1999-12-09,-0.45, -0.82, -20.79, 2.17, 1.94, 8.71, repro,
1999-12-10,-1.50, -0.62, -14.33, 2.00, 1.79, 7.97, repro,
1999-12-11,0.93, 0.04, -8.60, 2.15, 1.99, 8.47, repro,
1999-12-12,-1.96, -0.16, -16.31, 2.14, 1.83, 8.58, repro,
1999-12-13,-2.47, 1.04, -5.08, 2.38, 2.10, 9.49, repro,
1999-12-14,-1.20, -3.01, -14.30, 2.29, 2.07, 8.96, repro,
1999-12-15,1.61, -0.68, -18.72, 2.21, 1.98, 8.53, repro,
1999-12-16,-0.34, -2.93, -6.94, 2.27, 2.09, 8.66, repro,
1999-12-17,-2.32, -1.39, 0.99, 2.85, 2.68, 11.13, repro,
1999-12-18,-13.99, 0.61, -4.60, 3.70, 3.16, 14.78, repro,
1999-12-20,-0.36, -2.46, 0.49, 2.91, 2.79, 11.63, repro,
1999-12-21,-4.59, -1.29, -16.78, 2.31, 2.13, 9.00, repro,
1999-12-22,-2.49, 0.44, -18.34, 2.27, 2.01, 8.79, repro,
1999-12-23,-4.48, 1.19, -8.34, 2.39, 2.09, 9.33, repro,
1999-12-24,0.20, -0.03, -14.06, 2.44, 2.14, 9.41, repro,
1999-12-25,0.15, 0.95, -11.33, 2.00, 1.81, 7.84, repro,
1999-12-26,0.62, -0.98, -12.04, 2.26, 2.05, 8.70, repro,
1999-12-27,-0.72, 1.33, -10.72, 2.13, 1.93, 8.02, repro,
1999-12-28,-0.66, -0.89, -4.56, 2.13, 1.91, 8.02, repro,
1999-12-29,-0.35, 0.08, -8.82, 2.08, 1.84, 8.01, repro,
1999-12-30,-0.95, -1.24, -4.34, 2.08, 1.84, 7.93, repro,
1999-12-31,-3.45, -1.08, -10.55, 2.10, 1.93, 8.14, repro,
2000-01-01,-1.48, -0.78, -11.17, 2.17, 2.02, 8.63, repro,
2000-01-02,-0.51, 1.11, -10.84, 1.97, 1.73, 7.71, repro,
2000-01-03,-1.64, 0.81, -18.24, 1.99, 1.72, 7.76, repro,
2000-01-04,-1.83, -4.06, -9.23, 2.08, 1.91, 8.33, repro,
2000-01-05,0.36, -0.61, -21.91, 2.04, 1.84, 7.92, repro,
2000-01-06,-2.34, -1.44, -21.64, 1.99, 1.72, 7.74, repro,
2000-01-07,-1.21, -2.02, -4.22, 2.04, 1.85, 8.10, repro,
2000-01-08,-0.94, -0.61, -12.76, 1.93, 1.66, 7.56, repro,
2000-01-09,0.42, -0.19, -9.73, 1.94, 1.66, 7.58, repro,
2000-01-10,-4.11, 0.14, 2.53, 2.30, 1.90, 8.88, repro,
2000-01-11,1.80, 2.73, -6.76, 3.52, 3.28, 14.06, repro,
2000-01-12,-1.38, -0.15, -17.89, 2.09, 1.82, 8.21, repro,
2000-01-13,-1.86, -1.58, -22.29, 2.05, 1.82, 7.92, repro,
2000-01-14,1.63, -0.39, -25.37, 2.01, 1.78, 7.89, repro,
2000-01-15,0.12, -1.42, -24.44, 2.08, 1.84, 8.03, repro,
2000-01-16,1.38, -1.45, -28.11, 2.02, 1.76, 7.83, repro,
2000-01-17,-2.60, -1.49, -26.39, 2.09, 1.88, 8.34, repro,
2000-01-18,-2.66, -0.54, -24.26, 1.99, 1.76, 7.97, repro,
2000-01-19,-2.54, 0.05, -18.51, 2.01, 1.78, 7.96, repro,
2000-01-20,-0.54, 1.29, -23.07, 6.13, 4.88, 24.73, repro,
2000-01-21,2.53, 1.28, -1.40, 2.84, 2.72, 11.26, repro,
2000-01-22,-1.97, 1.38, -14.41, 2.01, 1.84, 8.02, repro,
2000-01-23,-2.31, 0.53, -12.81, 2.08, 1.83, 8.33, repro,
2000-01-24,-1.41, 0.95, -10.89, 1.96, 1.78, 7.83, repro,
2000-01-25,-0.65, 1.37, -20.32, 2.02, 1.76, 7.95, repro,
2000-01-26,-0.13, 0.61, -18.20, 2.08, 1.84, 8.24, repro,
2000-01-27,1.57, 0.85, -27.11, 2.18, 1.93, 8.49, repro,
2000-01-28,-1.29, 1.43, -19.91, 2.23, 2.02, 9.09, repro,
2000-01-29,-1.40, -0.63, -31.60, 2.12, 1.85, 8.31, repro,
2000-01-30,-0.82, -1.64, -18.53, 2.10, 1.83, 8.21, repro,
2000-01-31,1.06, -1.99, -31.29, 2.11, 1.86, 8.25, repro,
2000-02-01,-1.10, -1.72, -20.03, 2.23, 1.94, 8.80, repro,
2000-02-02,0.49, -0.17, -20.23, 2.21, 1.92, 8.76, repro,
2000-02-03,2.37, -0.58, -19.88, 2.26, 1.95, 8.87, repro,
2000-02-04,0.81, 1.11, -19.36, 2.10, 1.81, 8.36, repro,
2000-02-05,1.91, -1.69, -23.11, 2.17, 1.85, 8.53, repro,
2000-02-07,0.36, -2.11, -22.50, 2.11, 1.95, 8.34, repro,
2000-02-08,2.31, -0.27, -23.73, 2.30, 2.03, 9.09, repro,
2000-02-09,-0.86, -0.40, -19.78, 2.36, 1.94, 9.38, repro,
2000-02-10,-0.47, 0.43, -20.55, 1.95, 1.76, 7.91, repro,
2000-02-11,-2.64, 0.01, -15.10, 1.92, 1.68, 7.64, repro,
2000-02-12,-2.59, -1.17, -17.54, 1.96, 1.77, 7.99, repro,
2000-02-13,-1.44, 1.14, -17.38, 1.92, 1.67, 7.61, repro,
2000-02-14,-0.87, -2.29, -1.24, 2.03, 1.83, 8.20, repro,
2000-02-15,0.22, -1.41, -17.35, 1.96, 1.73, 7.69, repro,
2000-02-16,0.80, -0.51, -25.01, 1.96, 1.75, 7.82, repro,
2000-02-17,-0.35, -1.47, -19.82, 1.92, 1.69, 7.59, repro,
2000-02-18,0.62, -0.71, -25.47, 1.91, 1.69, 7.60, repro,
2000-02-19,-1.50, -1.57, -17.70, 2.18, 1.97, 8.80, repro,
2000-02-20,1.54, -0.61, -21.63, 1.98, 1.84, 8.11, repro,
2000-02-21,2.63, -1.05, -21.39, 1.98, 1.80, 7.96, repro,
2000-02-22,0.77, -0.63, -19.75, 1.97, 1.78, 7.90, repro,
2000-02-23,0.17, -0.63, -11.46, 2.02, 1.75, 8.12, repro,
2000-02-24,-0.10, -0.82, -19.88, 1.92, 1.70, 7.63, repro,
2000-02-25,-0.45, -0.48, -15.08, 1.92, 1.68, 7.57, repro,
2000-02-26,0.71, -0.77, -6.64, 2.04, 1.79, 8.15, repro,
2000-02-27,0.19, 1.42, -9.20, 1.95, 1.71, 7.71, repro,
2000-02-28,-0.12, -1.16, -12.08, 2.03, 1.80, 7.85, repro,
2000-02-29,1.27, -1.19, -14.35, 2.08, 1.80, 8.07, repro,
2000-03-01,0.61, -3.09, -8.74, 2.44, 2.37, 9.84, repro,
2000-03-02,1.38, -0.45, -6.00, 2.35, 2.33, 9.56, repro,
2000-03-03,2.37, -1.25, -10.77, 2.68, 2.48, 10.51, repro,
2000-03-04,-0.11, 0.69, -3.71, 2.10, 1.92, 8.68, repro,
2000-03-05,2.36, -0.32, -12.51, 2.05, 1.80, 8.24, repro,
2000-03-06,2.26, 0.24, -13.79, 2.32, 2.12, 9.43, repro,
2000-03-07,-1.37, 1.12, -16.27, 2.20, 1.93, 8.80, repro,
2000-03-08,2.72, 0.12, -10.85, 2.70, 2.52, 11.22, repro,
2000-03-09,-0.15, -1.09, -10.32, 2.15, 1.92, 8.79, repro,
2000-03-10,-0.70, -0.01, -17.33, 2.19, 2.12, 9.03, repro,
2000-03-11,1.72, -2.45, -14.48, 2.07, 1.91, 8.43, repro,
2000-03-12,0.87, -1.10, -12.57, 2.06, 1.96, 8.49, repro,
2000-03-13,1.51, 1.27, -11.21, 2.31, 2.31, 9.50, repro,
2000-03-14,1.75, 1.60, -17.79, 2.22, 2.07, 9.16, repro,
2000-03-15,-0.44, 1.13, -12.82, 2.06, 1.98, 8.56, repro,
2000-03-16,0.34, 0.57, -12.10, 2.08, 1.95, 8.48, repro,
2000-03-17,0.00, 1.44, -4.91, 2.00, 1.83, 8.09, repro,
2000-03-18,-0.39, 1.32, -17.24, 2.09, 1.90, 8.57, repro,
2000-03-19,-0.29, 2.24, -14.96, 2.12, 1.90, 8.55, repro,
2000-03-20,1.16, 2.11, -11.74, 2.08, 2.02, 8.65, repro,
2000-03-21,1.96, -0.65, -12.92, 2.17, 1.98, 8.73, repro,
2000-03-22,0.67, 0.06, -16.69, 2.09, 1.92, 8.60, repro,
2000-03-23,-1.52, 2.50, -12.81, 2.22, 2.03, 9.22, repro,
2000-03-24,1.09, 0.55, -17.85, 2.05, 1.96, 8.40, repro,
2000-03-25,1.05, -0.74, -15.20, 2.02, 1.89, 8.22, repro,
2000-03-26,-0.14, 0.07, -3.70, 2.00, 1.88, 8.25, repro,
2000-03-27,0.46, -0.40, -6.49, 2.09, 1.99, 8.63, repro,
2000-03-28,-0.10, -1.41, -10.53, 2.00, 1.81, 8.08, repro,
2000-03-29,1.48, 2.74, -9.35, 2.00, 1.85, 8.26, repro,
2000-03-30,-0.33, 0.19, -14.16, 2.00, 1.79, 8.12, repro,
2000-03-31,-1.78, 2.09, -7.72, 2.06, 1.87, 8.53, repro,
2000-04-01,-1.90, -0.17, -27.04, 3.69, 3.28, 14.89, repro,
2000-04-03,1.16, -0.09, -17.16, 2.49, 2.32, 10.39, repro,
2000-04-04,-1.73, 2.41, -7.44, 2.01, 1.82, 8.16, repro,
2000-04-05,-0.25, -0.25, -13.86, 1.97, 1.77, 7.91, repro,
2000-04-06,-1.68, 0.08, -8.77, 2.05, 1.92, 8.46, repro,
2000-04-07,-1.75, -0.42, -2.09, 2.08, 1.89, 8.43, repro,
2000-04-08,-0.96, -1.48, -13.93, 2.09, 1.87, 8.42, repro,
2000-04-09,-0.40, 1.04, -11.43, 2.02, 1.77, 8.05, repro,
2000-04-10,-1.87, -0.28, -23.69, 2.01, 1.77, 8.07, repro,
2000-04-11,-1.54, 0.49, -15.14, 1.97, 1.74, 7.79, repro,
2000-04-12,-0.73, 1.85, -21.87, 2.05, 1.83, 8.05, repro,
2000-04-13,-1.59, 1.16, -13.50, 2.14, 1.85, 8.40, repro,
2000-04-14,-2.51, 1.24, -16.78, 2.01, 1.82, 8.01, repro,
2000-04-15,-1.57, 2.63, -15.01, 2.16, 1.98, 8.71, repro,
2000-04-16,-1.73, 1.17, -14.32, 1.95, 1.72, 7.72, repro,
2000-04-17,-1.95, 0.90, -8.50, 2.05, 1.77, 8.10, repro,
2000-04-18,-2.19, 0.82, -10.00, 2.22, 1.99, 8.91, repro,
2000-04-19,-2.25, 1.67, -12.29, 2.02, 1.76, 7.90, repro,
2000-04-20,-0.96, 0.14, -13.75, 1.97, 1.80, 8.00, repro,
2000-04-21,-2.80, 1.74, -15.62, 2.02, 1.84, 8.16, repro,
2000-04-22,-2.56, 0.31, -11.18, 2.01, 1.82, 7.97, repro,
2000-04-23,-1.12, 0.34, -8.63, 1.96, 1.74, 7.77, repro,
2000-04-24,-2.45, 1.86, -15.47, 2.01, 1.82, 8.15, repro,
2000-04-25,-1.74, 0.58, -12.43, 2.09, 1.88, 8.08, repro,
2000-04-26,-1.53, 0.62, -14.16, 1.95, 1.72, 7.70, repro,
2000-04-27,-3.05, -0.69, -16.86, 2.31, 2.12, 9.21, repro,
2000-04-28,0.52, 2.00, -11.24, 2.57, 2.31, 10.06, repro,
2000-04-29,-3.67, 0.70, -10.97, 2.06, 1.85, 8.37, repro,
2000-04-30,-3.10, 0.40, -8.81, 2.07, 1.89, 8.48, repro,
2000-05-01,-3.02, 0.40, -14.57, 2.04, 1.80, 8.24, repro,
2000-05-02,-2.75, -0.99, -11.06, 2.17, 1.94, 8.92, repro,
2000-05-03,-3.26, 1.05, -9.03, 2.23, 1.95, 8.85, repro,
2000-05-04,-3.89, 3.72, -5.65, 2.59, 2.37, 10.29, repro,
2000-05-05,-3.35, 3.08, -3.28, 1.98, 1.75, 7.79, repro,
2000-05-06,-2.26, 0.31, -5.73, 2.02, 1.85, 8.03, repro,
2000-05-07,-2.77, 1.58, -3.47, 1.98, 1.76, 7.79, repro,
2000-05-08,-2.14, -1.85, 2.28, 2.17, 1.96, 8.64, repro,